GSAT0217 (PRN E27)

Last updated on Jan. 19, 2021, 6:23 a.m. UTC

1 43057U 17079C   21017.74185043 -.00000017  00000-0  00000-0 0  9995
2 43057  56.1029 275.9140 0004176 316.5278  43.5098  1.70473776 19294
UTC
Height (km)
Latitude
Longitude
Inclination
Orbital Period
UTC large
Height (km)
Speed (km/s)
/
Latitude / Longitude
Inclination (degrees)
Orbital Period (minutes)
Azimuth
Elevation
Range (km)
Doppler Factor
iOS Compass Heading
iOS Angle

Next 30 passes for location: Hong Kong

Rise time Rise Azimuth (degrees) Set time Set Azimuth (degrees) Duration Max altitude (degrees)

No matching passes for this satellites